Content
SEND FEEDBACK

Daily
Averages
Monthly
Summary
United States of America

NEWARK, OHIO


Home > North America > United States > Ohio
Elevation: 902 feet     Latitude: 40 04N     Longitude: 082 25W

WEATHER
 
SELECT A DAY
Number of Records: 215,562;   Date Range: 7/1/96 - 7/29/14
 
SHARE

PRINT THIS DATA

[ ← Previous Day ]
WEATHER ALMANAC - FEBRUARY 13, 2013
[ Next Day → ]
[ °C ]   °F
Weather ElementAverageHighLow
Temperature29.3 °F33.8 °F (12:51 pm)23 °F (8:23 pm)
Dewpoint25.9 °F28.9 °F (1:53 pm)19.4 °F (8:23 pm)
Humidity87.1 %93 % (2:11 pm)75 % (12:51 pm)
Barometer29.81 in29.91 in (9:53 pm)29.74 in (1:36 pm)
Wind Speed4.2 mph13.8 mph (9:53 pm)
Wind Gust21.9 mph (9:53 pm)
Weather ElementAverage
Visibility3.3 mi
Wind DirectionSSW (212.3 °)

Weather ElementTotal
Precipitation0.36 in
Heating Degree Days36.6 (Base 65)
Averaged from 44 records on February 13, 2013
WEATHER CONDITIONS BREAKOUT
WIND DIRECTION BREAKOUT
WEATHER BY HOUR - FEBRUARY 13, 2013
[ °C ]   °F
Local TimeTemperatureDewpointHumidityBarometerVisibilityWind DirectionWind SpeedGust SpeedPrecipitationEventsConditions
1:53 AM27.0 °F24.1 °F89 %29.90 in10.0 miCalmClear
2:53 AM25.0 °F21.0 °F85 %29.89 in10.0 miCalmClear
3:53 AM27.0 °F23.0 °F85 %29.88 in10.0 miCalmClear
4:53 AM28.9 °F25.0 °F85 %29.87 in9.0 miCalmClear
5:53 AM28.0 °F25.0 °F88 %29.85 in8.0 miNorth (10°)3.5 mphScattered Clouds
6:53 AM30.0 °F26.1 °F85 %29.82 in7.0 miNorth (360°)4.6 mphOvercast
7:53 AM30.9 °F26.1 °F82 %29.79 in5.0 miNE (40°)4.6 mphHaze
8:53 AM30.9 °F26.1 °F82 %29.81 in5.0 miNNE (20°)4.6 mphHaze
9:53 AM33.1 °F27.0 °F78 %29.81 in5.0 miNorth (360°)4.6 mphHaze
10:53 AM33.1 °F27.0 °F78 %29.83 in6.0 miNorth (360°)6.9 mphHaze
11:53 AM33.1 °F27.0 °F78 %29.80 in6.0 miNorthHaze
12:51 PM33.8 °F26.6 °F75 %29.76 in2.0 miNNW (340°)6.9 mph0.00 inSnowLight Snow
12:53 PM33.1 °F27.0 °F78 %29.78 in2.0 miNorth (350°)6.9 mph0.00 inSnowLight Snow
1:09 PM33.8 °F26.6 °F75 %29.75 in1.8 miNNW (340°)8.1 mph0.00 inSnowLight Snow
1:19 PM32.0 °F28.4 °F87 %29.75 in0.8 miNNW (330°)6.9 mph0.00 inSnowLight Snow
1:36 PM32.0 °F28.4 °F87 %29.74 in0.5 miNNW (340°)5.8 mph0.01 inFog-SnowSnow
1:53 PM30.9 °F28.9 °F92 %29.77 in0.5 miNNW (330°)4.6 mph0.02 inFog-SnowSnow
2:11 PM30.2 °F28.4 °F93 %29.74 in0.2 miNW (310°)3.5 mph0.02 inFog-SnowHeavy Snow
2:22 PM30.2 °F28.4 °F93 %29.74 in0.2 miNNW (330°)5.8 mph0.03 inFog-SnowHeavy Snow
2:32 PM30.2 °F28.4 °F93 %29.74 in0.2 miNW (320°)4.6 mph0.05 inFog-SnowHeavy Snow
2:39 PM30.2 °F28.4 °F93 %29.74 in0.2 miNW (320°)4.6 mph0.05 inFog-SnowSnow
2:45 PM30.2 °F28.4 °F93 %29.74 in0.2 miNNW (330°)5.8 mph0.06 inFog-SnowSnow
2:51 PM30.2 °F28.4 °F93 %29.74 in0.5 miNW (320°)4.6 mph0.06 inFog-SnowSnow
2:53 PM30.9 °F28.9 °F92 %29.77 in0.5 miNW (320°)5.8 mph0.06 inFog-SnowSnow
3:01 PM30.2 °F28.4 °F93 %29.75 in1.0 miNW (320°)5.8 mph0.00 inSnowLight Snow
3:12 PM30.2 °F28.4 °F93 %29.75 in1.5 miNW (320°)6.9 mph0.00 inSnowLight Snow
3:24 PM30.2 °F28.4 °F93 %29.76 in1.8 miNW (320°)6.9 mph0.00 inSnowLight Snow
3:49 PM30.2 °F28.4 °F93 %29.76 in2.0 miNW (320°)5.8 mph0.00 inOvercast
3:53 PM30.9 °F28.0 °F89 %29.79 in2.5 miNW (320°)5.8 mph0.00 inOvercast
4:15 PM32.0 °F28.4 °F87 %29.77 in2.5 miWNW (290°)3.5 mphOvercast
4:53 PM32.0 °F28.0 °F85 %29.80 in2.5 miWest (280°)4.6 mphOvercast
5:53 PM30.9 °F28.0 °F89 %29.81 in2.5 miWest (260°)3.5 mphMostly Cloudy
5:59 PM30.2 °F26.6 °F86 %29.79 in3.0 miWest (260°)3.5 mphMostly Cloudy
6:16 PM30.2 °F26.6 °F86 %29.80 in2.5 miWest (260°)5.8 mphMostly Cloudy
6:27 PM28.4 °F26.6 °F93 %29.81 in4.0 miWest (260°)5.8 mphScattered Clouds
6:53 PM27.0 °F24.1 °F89 %29.85 in4.0 miWest (260°)4.6 mphClear
7:53 PM25.0 °F23.0 °F92 %29.88 in4.0 miCalmClear
8:23 PM23.0 °F19.4 °F86 %29.86 in2.5 miCalmClear
8:40 PM24.8 °F21.2 °F86 %29.86 in3.0 miCalmClear
8:53 PM23.0 °F19.9 °F88 %29.89 in2.5 miCalmClear
9:08 PM23.0 °F19.4 °F86 %29.87 in3.0 miCalmClear
9:53 PM24.1 °F21.0 °F88 %29.91 in3.0 miWNW (300°)13.8 mph21.9 mphClear
10:53 PM26.1 °F21.9 °F84 %29.91 in4.0 miCalmClear
11:53 PM25.0 °F21.9 °F88 %29.91 in4.0 miSE (140°)3.5 mphClear
Hourly data recorded from KLHQ, located miles away from Newark, Ohio







STORIES FROM OUR PARTNERS